Regional Weather Roundup
Issued by NWS Green Bay, WI

Home | Current Version | Previous Version | Graphics & Text | Print | Product List | Glossary Off
Versions: 1 2 3 4 5 6 7 8 9 10 11 12 13 14 15 16 17 18 19 20 21 22 23 24 25 26 27 28 29 30 31 32 33 34 35 36 37 38 39 40 41 42 43 44 45 46 47 48 49 50

991
ASUS43 KGRB 182101
RWRGRB

NORTH-CENTRAL AND NORTHEAST WISCONSIN REGIONAL WEATHER ROUNDUP
NATIONAL WEATHER SERVICE GREEN BAY WI
400 PM CDT WED OCT 18 2017

WIZ005-009-010>012-018-019-182200-
NORTH CENTRAL WISCONSIN

CITY           SKY/WX    TMP DP  RH WIND       PRES   REMARKS
IRONWOOD       MOSUNNY   69  45  41 SW18G29   29.70R
MANITOWISH WTR NOT AVBL
ARBOR VITAE    NOT AVBL
EAGLE RIVER    NOT AVBL
LAND O LAKES   NOT AVBL
RHINELANDER    CLOUDY    69  47  45 SW14G23   29.76F
PHILLIPS       NOT AVBL
ANTIGO         NOT AVBL
TOMAHAWK       NOT AVBL
MERRILL        NOT AVBL
$$

WIZ013-073-182200-
NORTHEAST WISCONSIN

CITY           SKY/WX    TMP DP  RH WIND       PRES   REMARKS
IRON MOUNTAIN  MOSUNNY   71  43  36 S18G26    29.73F
MARINETTE      SUNNY     68  49  50 SW21G30   29.81F
$$

WIZ017-030-035>037-045-182200-
CENTRAL WISCONSIN

CITY           SKY/WX    TMP DP  RH WIND       PRES   REMARKS
MEDFORD        NOT AVBL
WAUSAU         LGT RAIN  70  46  42 SW16G29   29.78F
MOSINEE        MOSUNNY   72  46  40 S16G23    29.82F
MARSHFIELD     MOSUNNY   71  44  37 SW21G30   29.81F
WISC RAPIDS    SUNNY     73  49  42 SW15G22   29.85F
STEVENS POINT  NOT AVBL
WAUPACA        NOT AVBL
SHAWANO        CLOUDY    74  45  36 SW9G22    29.83F
CLINTONVILLE   NOT AVBL
WAUTOMA        SUNNY     73  47  39 SW18      29.87F
$$

WIZ038-039-048-051-182200-
FOX VALLEY

CITY           SKY/WX    TMP DP  RH WIND       PRES   REMARKS
NWS GREEN BAY  SUNNY     70  49  47 S13G25    29.86F
APPLETON       MOSUNNY   70  39  32 SW23G30   29.86F
OSHKOSH        SUNNY     71  47  42 S22G31    29.88F
FOND DU LAC    SUNNY     72  42  34 S16G29    29.89F
$$

WIZ022-050-052-182200-
EAST CENTRAL WISCONSIN

CITY           SKY/WX    TMP DP  RH WIND       PRES   REMARKS
EPHRAIM        NOT AVBL
WASHINGTON ISL NOT AVBL
STURGEON BAY   SUNNY     64  51  62 S14G23    29.86F
MANITOWOC      SUNNY     62  50  64 S17G24    29.90F
SHEBOYGAN      SUNNY     71  45  39 S18G33    29.91F
$$

LMZ563-521-522-541>543-182200-
LAKESHORE

STATION/POSITION TIME  TEMP    WIND        PRES    VSBY  WAVE
                       AIR SEA DIR/SP/G                  HT/PER
                 (UTC) (F)     (DEG/KT/KT) (MB)    (MI)  (FT/S)
SHEBOYGAN LKSHOR 2000   58     180/ 23/ 26 1013.4F
KEWAUNEE LKSHORE 2030   58     180/ 19/ 22 1011.6F
NORTHPORT PIER   2052   62     170/ 14/ 25 1010.2F
N MID LAKE BUOY  1950   61 59  190/ 27/ 35 1010.9F         9/ 8
S GREEN BAY BUOY 2000   64 58  200/ 17/ 23 1010.6
SISTER BAY LKSHO 2019   67     170/ 22/ 26   N/A
MENOMINEE LKSHOR 2030   67     190/ 18/ 25 1009.9F
$$




USA.gov is the U.S. government's official web portal to all federal, state and local government web resources and services.